Regional Weather Roundup
Issued by NWS

Home | Current Version | Previous Version | Text Only | Print | Product List | Glossary Off
Versions: 1 2 3 4 5 6 7 8 9 10 11 12 13 14 15 16 17 18 19 20 21 22 23 24 25 26 27 28 29 30 31 32 33 34 35 36 37 38 39 40 41 42 43 44 45 46 47 48 49 50

000
ASUS44 KMEG 291400
RWRTN
TENNESSEE HOURLY STATE WEATHER ROUNDUP
NATIONAL WEATHER SERVICE MEMPHIS TN
900 AM CDT SUN MAR 29 2015

TNZ002-004-019-021-049-052-054-088>092-291500-
WEST TENNESSEE

CITY           SKY/WX    TMP DP  RH WIND       PRES   REMARKS
MEMPHIS INTL   CLOUDY    45  25  45 S14       30.25S
NWS MEMPHIS      N/A     44 N/A N/A MISG        N/A
JACKSON        SUNNY     42  19  39 S8        30.28F
DYERSBURG      SUNNY     39  18  41 SE15      30.27F WCI  31
UNION CITY     SUNNY     37  21  52 SE12      30.26F WCI  30
PARIS          SUNNY     37  16  41 SE14      30.28F WCI  29
LEXINGTON      SUNNY     39  16  38 SE8       30.29F WCI  34
SAVANNAH       SUNNY     41  18  38 SE9       30.31F
$$

TNZ008-025-027-028-033-062-065-066-291500-
NORTH MIDDLE TENNESSEE

CITY           SKY/WX    TMP DP  RH WIND       PRES   REMARKS
NASHVILLE      MOSUNNY   39  20  46 S7        30.35S WCI  34
CLARKSVILLE    SUNNY     37  21  52 S9        30.32S WCI  30
COOKEVILLE     SUNNY     37  19  48 S9        30.34R WCI  31
CROSSVILLE     SUNNY     35  11  36 SE7       30.32S WCI  29
$$

TNZ061-075-076-078-094-096-097-291500-
SOUTH MIDDLE TENNESSEE

CITY           SKY/WX    TMP DP  RH WIND       PRES   REMARKS
FAYETTEVILLE   SUNNY     37  18  44 S7        30.36R WCI  32
TULLAHOMA      SUNNY     36  18  48 S6        30.35R WCI  31
WINCHESTER     SUNNY     39  18  41 SE12      30.35R WCI  32
COLUMBIA       SUNNY     39  21  48 SE9       30.33S WCI  33
SHELBYVILLE    SUNNY     39  21  48 S10       30.37R WCI  32
$$

TNZ017-018-042-046-047-291500-
NORTHEAST TENNESSEE

CITY           SKY/WX    TMP DP  RH WIND       PRES   REMARKS
TRI CITIES     SUNNY     32  17  54 SE5       30.39S WCI  27
ELIZABETHTON   SUNNY     30  10  43 E6        30.38S WCI  24
$$

TNZ012-013-036-069-073-074-291500-
CENTRAL EAST TENNESSEE

CITY           SKY/WX    TMP DP  RH WIND       PRES   REMARKS
KNOXVILLE      MOSUNNY   35  21  56 NE3       30.38S
OAK RIDGE      SUNNY     38  18  44 VRB5      30.40S WCI  34
GATLINBURG     SUNNY     32  19  59 E3        30.38S
$$

TNZ083-085-099-291500-
SOUTHEAST TENNESSEE

CITY           SKY/WX    TMP DP  RH WIND       PRES   REMARKS
CHATTANOOGA    SUNNY     39  22  50 CALM      30.41R
$$

SKY/WX REPORTED AS FAIR MEANS FEW OR NO CLOUDS BELOW
12 THOUSAND FEET.



USA.gov is the U.S. government's official web portal to all federal, state and local government web resources and services.